[[{"header":{"parameterUnit":"m.s-1","parameterCategory":1,"la1":30.2991,"la2":30.254,"lo1":-89.0895,"lo2":-89.0444,"dy":0.0017,"dx":0.0017,"nx":28,"ny":28,"refTime":"2025-04-17T03:00:00:Z","depth":0,"parameterNumber":2,"parameterNumberName":"U-component_of_WINDS"},"data":[0,0,0,0,0,0,0,0,0,0,0,0,0,0,0,0,0,0,0,0,0,0,0,0,0,0,0,0,0,0,0,0,0,0,0,0,0,0,0,0,0,0,0,0,0,0,0,0,0,0,0,0,0,0,0,0,0,0,0.8828,0.8829,0,0.885,0.885,0.885,0.8843,0.8843,0.8842,0.8842,0.8862,0.8863,0.8864,0,0,0,0,0,0,0,0,0,0,0,0,0,0.8778,0.8779,0.8828,0.8829,0.8829,0.885,0.885,0.885,0.8843,0.8843,0.8842,0.8842,0.8861,0.8863,0.8864,0,0,0,0,0,0,0,0,0,0,0,0,0,0.88,0.8779,0.8828,0.8828,0.8828,0.885,0.885,0.8851,0.8843,0.8843,0.8842,0.8841,0.8861,0.8862,0.8864,0.8887,0,0,0.8868,0.8869,0,0,0,0,0,0,0,0,0.8798,0.8801,0.8828,0.8828,0.8828,0.8843,0.884,0.8863,0.8844,0.8838,0.8842,0.8841,0.8856,0.8858,0.8863,0.8888,0.8888,0.8868,0.8869,0.887,0.887,0,0,0,0,0,0,0,0.8797,0.88,0.8837,0.8828,0.8828,0.8826,0.8828,0.8844,0.885,0.8838,0.8838,0.884,0.8856,0.8862,0.8864,0.8889,0.8868,0.887,0.8871,0.8871,0.893,0.893,0,0,0,0,0,0,0.8796,0.8799,0.8836,0.8838,0.8811,0.8827,0.883,0.8839,0.885,0.8851,0.8841,0.884,0.886,0.8862,0.8864,0.889,0.887,0.8871,0.8872,0.8929,0.893,0.8931,0,0,0,0,0,0,0.8794,0.8799,0.8835,0.8818,0.8823,0.8829,0.8839,0.884,0.8846,0.8852,0.8853,0.8846,0.8859,0.8862,0.8881,0.889,0.8872,0.8873,0.8928,0.8929,0.893,0.8942,0,0,0,0,0,0,0.8793,0.8799,0.8808,0.8819,0.8824,0.8852,0.884,0.8841,0.8849,0.8848,0.8857,0.8858,0.8859,0.8879,0.8882,0.8892,0.8874,0.8927,0.8929,0.893,0.8941,0.8943,0.8945,0,0,0,0,0,0.8791,0.8811,0.8809,0.8813,0.8836,0.8853,0.8856,0.8857,0.885,0.8858,0.8862,0.8858,0.8889,0.8881,0.8884,0.8895,0.8927,0.8928,0.893,0.894,0.8943,0.8945,0,0,0,0,0,0,0.8801,0.8812,0.881,0.8834,0.8843,0.8852,0.8863,0.8861,0.8871,0.887,0.887,0.8872,0.889,0.8895,0.8885,0.8916,0.8907,0.8909,0.8913,0.8916,0.8918,0.8916,0.8876,0,0,0,0,0,0.8806,0.882,0.8829,0.8849,0.8853,0.8857,0.8865,0.8865,0.8874,0.8877,0.8882,0.889,0.8901,0.8909,0.892,0.8941,0.8942,0.895,0.8953,0.8955,0.8956,0.8966,0.8969,0.8936,0.8936,0.8936,0,0,0.8817,0.8824,0.8833,0.8851,0.8858,0.887,0.8861,0.8875,0.8884,0.8879,0.8896,0.89,0.8909,0.8928,0.8937,0.8933,0.8966,0.8957,0.8958,0.8959,0.8968,0.8971,0.8973,0.8937,0.8937,0.8936,0,0,0.8842,0.885,0.8866,0.8873,0.8883,0.8886,0.889,0.8899,0.8901,0.8919,0.8915,0.8925,0.8945,0.8951,0.8956,0.8982,0.8977,0.8985,0.8997,0.9006,0.9009,0.9011,0.9018,0.9021,0.8987,0.8987,0.8987,0,0.8853,0.8873,0.8875,0.8889,0.8896,0.8892,0.8908,0.8914,0.8927,0.8931,0.8926,0.895,0.8956,0.8975,0.8981,0.8986,0.8989,0.8984,0.9008,0.9011,0.9013,0.9019,0.9022,0.8988,0.8988,0.8988,0.8988,0,0.8886,0.8899,0.8911,0.8924,0.8932,0.8947,0.8949,0.8957,0.8956,0.8959,0.8975,0.8982,0.8993,0.8998,0.8997,0.9017,0.9013,0.9008,0.8998,0.9017,0.9023,0.9026,0.8989,0.8989,0.8988,0.8988,0,0,0.8918,0.893,0.8934,0.8939,0.8949,0.8959,0.8973,0.8984,0.899,0.8999,0.9009,0.9026,0.902,0.9027,0.9026,0.9035,0.9051,0.9028,0.9028,0.9031,0.9071,0.9074,0.9077,0.9049,0.905,0.905,0.907,0,0.8942,0.8967,0.8968,0.899,0.9001,0.8997,0.9009,0.9015,0.9018,0.9027,0.903,0.904,0.9034,0.9037,0.9045,0.9048,0.9059,0.9047,0.9057,0.9057,0.9054,0.908,0.9083,0.9102,0.9072,0.9073,0.9073,0,0.8974,0.8983,0.9006,0.9013,0.9018,0.9029,0.9038,0.9047,0.9054,0.9055,0.9061,0.9059,0.9072,0.9062,0.9078,0.907,0.9074,0.9076,0.9076,0.9076,0.9065,0.9079,0.9108,0.911,0.9077,0.9077,0.9077,0,0.8992,0.9011,0.9026,0.9031,0.904,0.9047,0.9051,0.9057,0.9063,0.9071,0.9074,0.9084,0.9088,0.9095,0.9095,0.9088,0.911,0.9101,0.911,0.911,0.9114,0.9113,0.9142,0.9119,0.9119,0.9119,0.9119,0,0.9018,0.9032,0.9034,0.9044,0.9059,0.9059,0.9073,0.9076,0.9082,0.9091,0.9088,0.9096,0.9096,0.9104,0.9105,0.9117,0.9119,0.9119,0.9119,0.9119,0.9118,0.9121,0.9119,0.912,0.912,0.912,0.912,0,0.9041,0.9043,0.906,0.9066,0.9068,0.9079,0.9084,0.9092,0.9094,0.9105,0.9108,0.911,0.912,0.9121,0.9132,0.9131,0.9145,0.9145,0.9143,0.9142,0.915,0.9149,0.918,0.9183,0.916,0.916,0.9161,0,0.9057,0.9067,0.9074,0.908,0.9084,0.9094,0.91,0.9101,0.9106,0.9114,0.9121,0.913,0.9137,0.9152,0.9154,0.9162,0.916,0.917,0.9161,0.916,0.9158,0.9157,0.9157,0.9172,0.9172,0.9172,0.9172,0,0.9083,0.9084,0.9093,0.9101,0.9108,0.9115,0.9122,0.9127,0.9128,0.9134,0.9144,0.9149,0.916,0.9168,0.9175,0.9178,0.9175,0.9175,0.9177,0.9177,0.9175,0.9174,0.9146,0.9174,0.9174,0.9174,0.9174,0.9174,0.9102,0.911,0.9116,0.9125,0.913,0.9136,0.9143,0.9146,0.9154,0.9163,0.9162,0.9172,0.9177,0.9187,0.919,0.9197,0.9194,0.9197,0.9198,0.9198,0.9198,0.9175,0.9199,0.9199,0.9199,0.9199,0.9199,0,0.9127,0.913,0.9139,0.9148,0.9154,0.9151,0.9158,0.9164,0.9172,0.9178,0.9185,0.9194,0.9202,0.9205,0.9212,0.9217,0.9216,0.9219,0.9218,0.9218,0.9202,0.9199,0.922,0.922,0.922,0.922,0.922,0.922,0.914,0.9153,0.9154,0.9169,0.9172,0.9182,0.9186,0.919,0.9194,0.9205,0.9212,0.9214,0.9217,0.9225,0.9231,0.9232,0.9234,0.9237,0.9237,0.9222,0.9219,0.9217,0.9214,0.9238,0.9238,0.9252,0.9253,0.9253]},{"header":{"parameterUnit":"m.s-1","parameterCategory":1,"la1":30.2991,"la2":30.254,"lo1":-89.0895,"lo2":-89.0444,"dy":0.0017,"dx":0.0017,"nx":28,"ny":28,"refTime":"2025-04-17T03:00:00:Z","depth":0,"parameterNumber":3,"parameterNumberName":"V-component_of_WINDS"},"data":[0,0,0,0,0,0,0,0,0,0,0,0,0,0,0,0,0,0,0,0,0,0,0,0,0,0,0,0,0,0,0,0,0,0,0,0,0,0,0,0,0,0,0,0,0,0,0,0,0,0,0,0,0,0,0,0,0,0,1.9737,1.9738,0,1.9754,1.9754,1.9754,1.9706,1.9704,1.9703,1.9701,1.9719,1.9721,1.9722,0,0,0,0,0,0,0,0,0,0,0,0,0,1.9662,1.9664,1.9737,1.9738,1.9738,1.9754,1.9754,1.9754,1.9706,1.9704,1.9702,1.97,1.9718,1.972,1.9723,0,0,0,0,0,0,0,0,0,0,0,0,0,1.9688,1.9664,1.9737,1.9715,1.9714,1.9754,1.9754,1.9754,1.9706,1.9704,1.9702,1.97,1.9717,1.972,1.9723,1.9785,0,0,1.9731,1.9733,0,0,0,0,0,0,0,0,1.9687,1.9691,1.9718,1.9717,1.9715,1.9725,1.9734,1.9765,1.9707,1.9709,1.9701,1.9698,1.9723,1.9725,1.9733,1.9786,1.9787,1.9732,1.9733,1.9735,1.9735,0,0,0,0,0,0,0,1.9685,1.969,1.9744,1.9719,1.9717,1.9704,1.9706,1.974,1.9728,1.9709,1.9705,1.9708,1.9721,1.973,1.9733,1.9787,1.9732,1.9734,1.9736,1.9737,1.9888,1.9891,0,0,0,0,0,0,1.9686,1.9689,1.9743,1.9744,1.9695,1.9707,1.9709,1.9724,1.9728,1.9726,1.971,1.9705,1.9727,1.973,1.9734,1.9804,1.9735,1.9737,1.9739,1.9886,1.9889,1.9892,0,0,0,0,0,0,1.9685,1.9692,1.9743,1.9716,1.9721,1.9711,1.9729,1.9726,1.9735,1.9729,1.9726,1.9721,1.9725,1.973,1.9772,1.9804,1.9738,1.9741,1.9883,1.9887,1.989,1.9948,0,0,0,0,0,0,1.9683,1.9691,1.9716,1.9717,1.9723,1.9782,1.9731,1.9728,1.974,1.9734,1.9739,1.9737,1.9724,1.9768,1.9775,1.9807,1.9743,1.988,1.9885,1.9889,1.9944,1.9953,1.9962,0,0,0,0,0,1.968,1.9732,1.9717,1.9724,1.9753,1.9784,1.9787,1.977,1.9743,1.9766,1.9762,1.9737,1.98,1.9773,1.978,1.9814,1.9878,1.9884,1.9889,1.9939,1.9952,1.9962,0,0,0,0,0,0,1.9737,1.9732,1.9715,1.9769,1.9777,1.9775,1.9805,1.9784,1.98,1.9795,1.9773,1.9775,1.982,1.9821,1.9791,1.9872,1.9834,1.9841,1.987,1.9882,1.9891,1.9889,1.9745,0,0,0,0,0,1.9755,1.978,1.9775,1.9823,1.9827,1.9816,1.9828,1.9814,1.9822,1.9825,1.9824,1.9832,1.9853,1.9867,1.9887,1.9943,1.9942,1.997,1.9979,1.9987,1.9993,2.002,2.0032,1.9909,1.9909,1.9909,0,0,1.9794,1.9794,1.9812,1.9834,1.9838,1.9864,1.9819,1.9849,1.9867,1.983,1.9869,1.9868,1.9875,1.9924,1.9946,1.9927,2.0026,1.9994,2.0,2.0002,2.0027,2.0038,2.0049,1.9912,1.9912,1.9911,0,0,1.9877,1.9881,1.992,1.9924,1.9931,1.9922,1.9932,1.9932,1.993,1.9969,1.994,1.9962,2.0,2.0005,2.0013,2.0095,2.0072,2.0102,2.015,2.0177,2.0187,2.0195,2.0223,2.0233,2.0108,2.0109,2.0109,0,1.9924,1.9962,1.9943,1.9973,1.9983,1.9949,1.9987,1.9993,2.0006,2.0013,1.9991,2.0035,2.0038,2.0087,2.0106,2.0115,2.0123,2.0101,2.0187,2.0195,2.0203,2.0229,2.0239,2.0112,2.0112,2.0111,2.0111,0,2.0019,2.0045,2.0076,2.0087,2.0101,2.0135,2.012,2.0135,2.012,2.0113,2.0152,2.0153,2.0171,2.0182,2.0168,2.0228,2.0215,2.0191,2.0151,2.0218,2.0242,2.0252,2.0117,2.0116,2.0115,2.0114,0,0,2.014,2.0138,2.0149,2.0152,2.0156,2.0176,2.0208,2.0225,2.0237,2.0247,2.0272,2.0304,2.028,2.0289,2.0275,2.0299,2.0361,2.0271,2.027,2.0286,2.0424,2.0442,2.0454,2.0346,2.0347,2.0349,2.0423,0,2.022,2.0274,2.0256,2.0311,2.0334,2.03,2.0328,2.0332,2.0326,2.0344,2.0338,2.0359,2.0328,2.0332,2.0355,2.0348,2.0388,2.0343,2.0368,2.0369,2.0366,2.0467,2.0486,2.0556,2.0432,2.0434,2.0435,0,2.0322,2.0333,2.039,2.0386,2.0395,2.0421,2.0432,2.0451,2.0455,2.0448,2.0457,2.0437,2.0467,2.0428,2.0468,2.0438,2.0447,2.0446,2.0448,2.0449,2.0406,2.0469,2.0578,2.0588,2.045,2.0449,2.0448,0,2.0401,2.0431,2.0468,2.0472,2.047,2.0488,2.0488,2.049,2.05,2.051,2.0516,2.0531,2.0539,2.055,2.0534,2.0508,2.0576,2.0536,2.0571,2.0571,2.0586,2.0585,2.0697,2.0594,2.0594,2.0594,2.0594,0,2.0492,2.0528,2.0503,2.0526,2.0564,2.0542,2.0581,2.0577,2.0578,2.0599,2.0571,2.0591,2.0569,2.0587,2.0575,2.0609,2.0613,2.0608,2.0604,2.061,2.061,2.0615,2.0609,2.0597,2.0596,2.0595,2.0595,0,2.0588,2.0573,2.0611,2.0604,2.0603,2.0632,2.0626,2.0646,2.0637,2.0664,2.0669,2.0655,2.0674,2.0659,2.0679,2.067,2.0714,2.0704,2.0713,2.071,2.0744,2.074,2.0862,2.0875,2.0765,2.0766,2.0767,0,2.0646,2.0673,2.0668,2.0679,2.068,2.07,2.0709,2.0688,2.0699,2.0703,2.0723,2.0739,2.0751,2.0783,2.0775,2.0789,2.0778,2.0819,2.078,2.0784,2.0777,2.0775,2.0776,2.0827,2.0829,2.083,2.083,0,2.0751,2.0742,2.0756,2.0767,2.0779,2.0787,2.0793,2.0804,2.0782,2.0795,2.0814,2.0823,2.0841,2.0857,2.0868,2.0868,2.0845,2.0843,2.0851,2.0857,2.086,2.0857,2.0733,2.084,2.0839,2.0838,2.0838,2.0838,2.0829,2.0849,2.0848,2.0864,2.0866,2.0871,2.0889,2.0881,2.0896,2.0909,2.0895,2.0917,2.0918,2.093,2.0932,2.0948,2.0931,2.0944,2.0947,2.095,2.0954,2.0858,2.0951,2.095,2.095,2.095,2.095,0,2.093,2.0927,2.0942,2.095,2.0962,2.0939,2.0944,2.0955,2.0975,2.0977,2.0988,2.1009,2.1024,2.1016,2.1028,2.1043,2.1033,2.1047,2.1045,2.1045,2.097,2.096,2.1055,2.1055,2.1055,2.1054,2.1054,2.1054,2.0985,2.1017,2.1007,2.1039,2.1036,2.1057,2.1061,2.1065,2.1066,2.109,2.1101,2.1096,2.1093,2.1105,2.1117,2.1115,2.112,2.1137,2.1131,2.1061,2.105,2.104,2.1031,2.1139,2.1139,2.1204,2.1205,2.1205]}]]